Location: Olsztyn
(53.7767°N, 20.4765°E)
Time: 21:02:43
(UTC+02:00)

Envisat - Pass Details

Date: 29 February 2024
Orbit: 762 x 764 km, 98.3° (Epoch: 21 April)

Event Time Altitude Azimuth Distance (km) Brightness Sun altitude
Rises 03:35:42 0° 14° (NNE) 3,246 6.8 -25.8°
Reaches altitude 10° 03:38:01 10° 12° (NNE) 2,315 5.9 -25.5°
Maximum altitude 03:43:06 73° 289° (WNW) 803 2.9 -24.8°
Enters shadow 03:43:18 72° 267° (W) 807 2.8 -24.7°
